Hourly Data Report for September 17, 2017

All times are specified in Local Standard Time (LST). Add 1 hour to adjust for Daylight Saving Time where and when it is observed.

ALGONQUIN PARK EAST GATE
ONTARIO

45°32'00.000" N
78°16'00.000" W
397.00 m
6080192
71581
TNK

Download Data

Hourly Data (September 2017)
Hourly Data Report for September 17, 2017
Temp Definition
°C
Dew Point Temp Definition
°C
Rel Hum Definition
%
Wind Dir Definition
10's deg

Wind Spd Definition
km/h
Visibility Definition
km
Stn Press Definition
kPa
Hmdx Definition


Wind Chill Definition


Weather Definition


TIME
00:00 12.6 11.2 91 LegendMM LegendMM   97.40     LegendNANA
01:00 12.1 10.9 92 LegendMM LegendMM   97.38     LegendNANA
02:00 11.8 10.6 93 LegendMM LegendMM   97.36     LegendNANA
03:00 11.4 10.4 93 LegendMM LegendMM   97.36     LegendNANA
04:00 11.1 10.0 93 LegendMM LegendMM   97.38     LegendNANA
05:00 10.4 9.2 93 LegendMM LegendMM   97.40     LegendNANA
06:00 9.9 8.8 93 LegendMM LegendMM   97.44     LegendNANA
07:00 11.3 10.3 94 LegendMM LegendMM   97.48     LegendNANA
08:00 14.3 12.6 90 LegendMM LegendMM   97.44     LegendNANA
09:00 19.1 15.5 80 LegendMM LegendMM   97.42     LegendNANA
10:00 22.4 15.9 67 LegendMM LegendMM   97.38 27   LegendNANA
11:00 23.6 14.9 58 LegendMM LegendMM   97.34 28   LegendNANA
12:00 24.9 14.9 54 LegendMM LegendMM   97.32 29   LegendNANA
13:00 24.9 14.1 51 LegendMM LegendMM   97.25 28   LegendNANA
14:00 25.3 13.3 48 LegendMM LegendMM   97.23 28   LegendNANA
15:00 25.1 13.4 48 LegendMM LegendMM   97.19 28   LegendNANA
16:00 24.2 14.3 54 LegendMM LegendMM   97.16 28   LegendNANA
17:00 22.7 15.6 64 LegendMM LegendMM   97.14 27   LegendNANA
18:00 20.2 16.1 78 LegendMM LegendMM   97.14 25   LegendNANA
19:00 18.2 15.5 84 LegendMM LegendMM   97.18     LegendNANA
20:00 16.7 14.7 88 LegendMM LegendMM   97.21     LegendNANA
21:00 15.6 13.9 90 LegendMM LegendMM   97.21     LegendNANA
22:00 14.5 12.8 90 LegendMM LegendMM   97.21     LegendNANA
23:00 13.9 12.4 91 LegendMM LegendMM   97.20     LegendNANA

Notes on Data Quality.

Legend

  • E = Estimated
  • M = Missing
  • NA = Not Available
  • ‡ = Partner data that is not subject to review by the National Climate Archives
Date modified: